Probability
9 10 12 11 11 11 11 9 6 5 7 9 8 6 4 3 4 6 10 15 18 17 13 12 11 10 11 13 15 14 12 11 11 9 6 4 3 1 0 0 2 4 5
13 15 15 13 11 10 10 10 8 7 8 8 7 6 5 5 6 7 10 12 15 15 13 12 12 11 10 12 13 13 12 11 11 11 8 4 3 2 1 1 2 3 3
16 18 18 15 11 9 10 12 11 9 8 7 6 6 7 7 7 7 9 10 11 11 12 13 14 12 10 9 10 11 12 12 12 10 8 5 3 2 2 1 1 1 1
15 17 17 14 11 10 11 12 11 10 8 5 4 6 9 9 7 7 8 9 8 7 9 12 14 13 10 8 9 10 11 11 11 9 7 5 4 2 2 1 0 0 0
12 12 12 11 10 10 11 11 10 9 9 6 4 6 8 8 7 7 7 6 6 5 6 9 12 12 10 9 9 9 10 10 10 9 8 6 5 3 2 1 1 0 0
9 8 7 8 10 10 9 9 9 9 8 8 5 5 6 7 8 8 6 5 5 6 6 7 8 9 8 9 9 10 10 10 10 9 9 8 6 4 3 3 2 1 0
8 7 7 9 11 10 9 9 9 8 6 6 5 4 4 6 8 8 7 5 5 6 7 6 5 5 5 6 8 9 9 9 9 9 9 9 7 4 3 3 3 2 1
8 9 11 12 13 12 11 10 9 7 5 5 6 5 3 3 5 6 6 5 5 6 7 5 3 2 2 3 5 6 8 8 8 8 9 9 8 5 4 3 3 3 3
10 12 15 15 14 14 12 11 11 8 5 5 7 6 4 2 2 3 4 4 5 6 6 5 3 2 1 1 2 4 6 7 8 8 8 9 8 6 5 4 3 3 3
14 15 16 16 14 12 11 10 10 9 5 5 6 5 3 2 3 3 3 3 4 5 5 4 4 3 3 4 3 3 4 5 7 7 7 7 6 4 4 4 4 3 3
18 16 14 13 12 10 8 6 6 7 6 4 4 3 1 1 2 3 3 3 3 4 4 4 4 4 5 6 6 3 1 2 3 5 5 4 3 2 3 3 3 3 3
18 16 13 11 10 7 5 3 3 4 4 3 2 1 0 0 1 2 3 3 3 3 4 4 4 5 6 7 6 3 1 0 1 2 3 3 1 1 1 1 1 2 3
16 16 14 13 11 6 3 2 3 3 2 1 0 0 0 0 0 1 2 2 3 4 5 5 5 6 6 6 4 3 2 1 0 1 1 2 1 0 0 0 0 1 2
16 15 14 14 12 7 4 4 3 2 1 0 0 0 0 0 0 0 1 1 1 3 4 6 6 6 6 6 3 2 2 1 0 0 0 1 1 0 0 0 0 0 1
16 15 14 13 12 10 8 6 4 2 1 0 0 0 0 0 0 1 2 1 0 1 2 5 6 5 5 5 3 3 2 1 0 0 0 0 0 0 0 0 0 0 0
14 13 11 11 11 11 9 7 5 3 2 1 0 0 0 0 0 2 3 2 1 1 1 3 5 5 4 3 3 4 4 2 0 0 0 0 0 0 0 0 0 0 0
11 9 8 8 9 8 6 5 4 3 2 1 0 0 0 0 0 1 2 2 2 2 1 2 4 4 3 2 2 4 5 3 1 0 0 0 0 0 0 0 0 0 0
6 6 6 6 5 5 4 4 3 3 2 1 0 0 0 0 0 0 1 1 1 2 2 2 3 4 4 3 3 3 4 3 2 0 0 0 0 0 0 0 0 0 0
4 4 3 3 4 3 3 3 3 3 3 1 1 0 0 0 0 0 0 0 0 1 1 2 3 4 4 4 5 4 3 2 1 0 0 0 0 0 0 0 0 0 0
2 2 1 1 2 3 3 3 3 3 3 3 2 1 0 0 0 0 0 0 0 0 1 1 2 3 4 4 5 5 3 2 1 0 0 0 0 0 0 0 0 0 0
1 1 0 0 1 2 2 2 3 3 3 3 3 2 1 0 0 0 0 0 0 1 1 1 2 3 3 3 4 4 3 3 2 0 0 0 0 0 0 0 0 0 0
0 0 0 0 0 1 1 1 1 2 3 4 4 3 2 1 0 0 0 0 0 1 1 2 2 2 2 3 4 3 3 3 2 1 0 0 0 0 0 0 0 0 0
0 0 0 0 0 0 0 0 0 1 3 4 3 4 3 2 0 0 0 0 0 0 1 1 1 1 1 2 2 2 3 3 2 2 1 0 0 0 0 0 0 0 0
1 1 1 0 0 0 0 0 0 0 2 2 2 2 3 3 1 0 0 0 0 0 0 0 0 0 0 1 1 2 3 3 2 3 2 1 0 0 0 0 0 0 0
3 2 1 1 1 1 0 0 0 1 2 1 0 0 2 2 1 0 0 1 1 1 1 0 0 0 0 1 2 3 3 3 1 1 2 1 1 1 1 0 0 0 0
4 2 1 2 2 2 1 0 0 1 2 2 1 0 0 1 0 0 1 2 2 2 1 0 0 0 0 1 2 3 3 2 1 1 2 1 1 2 2 1 0 0 0
Wind_Speed
1 0 0 0 1 1 2 2 2 2 2 3 3 2 1 1 1 2 4 8 9 8 7 6 6 6 6 6 6 6 6 5 5 5 4 4 3 3 3 4 4 3 3
1 0 1 1 1 0 1 1 1 2 2 1 1 1 1 0 1 2 3 5 7 8 7 6 6 5 5 5 5 5 5 5 5 5 5 4 4 3 3 4 4 4 4
0 1 1 1 0 1 1 1 1 1 2 2 1 1 1 1 0 1 2 3 4 6 7 7 6 6 5 5 5 5 5 5 5 6 6 5 5 4 4 4 5 5 4
0 1 0 0 1 1 1 1 1 1 1 1 1 1 1 1 1 2 2 2 3 4 5 7 7 7 6 6 5 5 5 5 5 6 6 7 6 6 6 6 6 6 6
1 0 1 0 1 1 1 1 1 1 1 1 1 2 2 2 2 2 2 2 2 4 4 6 8 7 7 7 7 6 6 5 5 6 7 7 7 7 7 7 7 7 7
0 0 0 1 1 1 1 1 1 1 1 1 1 1 1 2 2 2 2 2 2 3 3 4 4 5 8 8 7 7 7 6 5 5 6 7 7 6 6 7 7 8 8
1 0 1 1 1 0 0 1 1 1 1 1 1 1 1 2 2 2 2 2 2 2 3 3 3 3 4 7 7 7 7 7 5 5 5 6 5 6 6 7 7 8 8
1 1 1 1 1 0 0 1 1 1 1 1 1 0 1 1 1 2 2 2 2 2 2 2 2 2 2 3 4 5 5 4 5 5 5 5 5 5 6 7 7 8 8
1 1 0 1 1 0 0 1 1 1 1 1 1 1 1 1 0 1 2 2 2 2 2 3 3 3 3 2 3 4 4 3 3 3 4 5 5 6 7 7 8 8 8
1 1 0 0 0 0 1 1 0 1 1 1 1 1 0 1 0 0 1 2 3 3 2 2 2 2 2 2 4 5 4 3 2 3 4 4 5 6 7 8 8 8 8
1 1 1 0 0 0 0 0 0 1 1 1 1 0 0 0 0 1 1 1 1 2 2 2 2 2 2 2 3 4 5 4 3 2 3 4 5 6 6 7 7 8 8
1 1 1 0 0 0 0 0 0 1 0 1 0 0 0 0 0 0 1 1 1 1 2 2 2 2 2 2 3 4 5 4 3 3 3 3 4 5 6 7 7 7 8
1 1 1 1 1 1 1 1 1 1 0 0 0 0 0 0 0 0 0 1 2 2 1 2 2 2 2 2 2 4 5 6 5 4 4 4 4 5 6 6 6 7 8
1 1 1 1 1 1 1 1 1 1 1 0 0 0 0 0 0 0 0 1 2 1 1 1 1 2 1 2 3 4 4 6 6 5 5 5 5 5 5 5 5 5 5
1 1 1 1 1 1 1 1 1 1 1 1 0 0 0 0 0 0 1 1 1 1 2 1 1 2 1 1 3 3 3 6 7 7 7 6 6 6 5 5 4 4 5
0 1 1 1 1 1 1 2 1 1 1 1 1 1 0 1 1 1 1 1 1 1 1 2 1 0 0 1 3 2 2 5 8 9 9 8 8 7 6 6 6 5 5
1 1 1 1 1 1 1 2 2 2 1 1 1 1 1 1 1 1 1 1 1 1 1 2 1 1 1 1 1 2 2 3 4 7 8 9 9 8 8 7 7 6 6
1 1 1 1 1 2 2 1 1 1 1 1 1 1 1 1 1 1 2 2 2 1 1 2 2 1 2 2 2 3 3 3 3 6 8 9 10 10 9 8 7 7 6
1 1 1 1 1 1 1 1 1 1 1 1 1 1 1 0 1 2 2 2 2 2 1 2 3 1 1 1 1 2 3 2 3 3 6 8 9 10 10 9 9 8 7
1 1 1 1 0 1 1 0 1 1 1 1 1 1 1 1 1 2 2 2 2 2 3 2 2 1 1 1 0 1 2 1 2 2 2 3 7 9 10 10 10 9 9
1 1 0 0 0 1 1 1 1 1 0 1 1 1 1 1 2 2 3 2 2 2 2 2 2 2 1 1 1 2 2 2 2 1 1 2 2 3 5 8 9 10 10
0 0 0 0 1 0 1 1 1 1 1 1 1 2 2 2 3 3 4 5 4 4 2 2 2 2 2 2 2 3 2 2 3 1 1 3 2 2 3 3 6 9 10
1 0 0 1 1 0 1 1 2 2 2 2 2 2 3 2 1 1 3 4 5 7 7 4 3 3 3 2 2 3 3 3 4 3 2 3 2 2 2 2 7 8 9
1 1 1 1 1 1 2 2 2 3 3 3 3 4 3 2 2 1 3 3 3 2 4 4 4 4 4 3 3 3 4 4 4 3 1 2 2 2 2 1 6 7 8
1 1 2 2 2 1 3 3 3 3 3 4 4 3 2 2 2 2 2 3 3 3 3 3 5 6 7 7 4 2 3 3 3 3 1 1 2 2 2 2 2 6 7
2 2 2 1 1 1 2 4 4 3 3 3 2 2 2 2 2 2 2 3 3 3 3 3 4 5 6 6 6 4 3 2 3 3 1 1 2 2 2 2 1 2 3
Wind_Direction
271 247 312 76 242 201 202 225 215 210 209 228 237 230 208 152 171 137 136 151 153 154 157 159 167 175 180 178 177 178 180 182 180 175 171 168 178 190 198 199 199 204 214
304 314 200 247 262 241 233 238 220 213 218 219 232 220 162 192 175 151 142 155 160 163 165 168 172 170 175 181 180 183 192 194 190 190 187 184 188 200 210 215 216 218 222
286 291 235 220 241 248 245 251 256 224 230 212 204 206 185 199 178 165 149 155 162 162 166 170 172 171 174 185 188 187 191 191 193 199 201 200 203 213 218 224 229 227 230
328 303 298 301 284 260 232 210 213 227 231 214 209 215 180 176 195 192 179 173 166 159 168 173 175 177 181 189 193 196 198 200 202 202 206 207 209 215 222 227 232 232 233
3 25 336 7 282 268 236 242 191 211 210 203 220 201 193 198 201 198 185 188 168 160 167 177 182 187 190 196 200 202 202 205 207 211 215 216 215 218 222 226 231 233 234
39 28 269 301 293 264 239 243 238 226 203 210 248 236 208 203 198 196 202 191 179 173 170 173 184 196 199 202 205 207 207 210 214 220 222 219 217 219 221 227 232 234 232
73 14 319 275 275 261 251 246 232 214 206 205 208 271 251 220 199 197 203 198 181 177 159 174 180 181 192 203 207 208 215 218 222 224 223 221 221 224 228 230 233 235 231
154 205 237 260 240 231 221 260 244 230 238 198 182 226 236 235 251 227 193 198 195 161 169 178 200 187 192 173 181 192 205 212 225 227 225 226 228 231 235 238 238 237 234
174 249 181 265 282 262 234 247 261 236 236 245 193 194 218 215 259 216 214 193 201 189 191 191 198 193 198 166 158 173 187 193 220 243 245 239 238 241 243 245 245 244 242
161 140 97 14 352 303 290 265 184 264 228 238 253 233 192 111 186 321 251 207 212 210 204 206 193 181 170 146 141 143 161 170 211 249 256 253 249 249 252 251 248 248 248
181 155 175 147 94 282 230 299 29 310 262 248 264 268 3 254 181 197 266 256 245 224 193 185 182 194 180 158 145 147 157 169 194 233 254 261 260 257 258 259 255 252 250
188 181 177 135 132 255 233 153 106 96 10 332 330 3 49 59 12 232 268 285 253 234 215 193 184 182 171 141 145 155 167 177 194 220 242 261 267 264 262 261 262 260 257
145 150 137 142 172 193 197 151 124 128 98 7 47 357 4 298 329 44 303 289 279 246 207 202 181 164 175 151 156 175 182 187 198 214 232 248 256 261 259 260 263 268 265
139 151 150 155 148 163 178 139 155 149 145 192 159 153 235 315 329 307 240 262 283 283 227 205 177 172 177 153 170 187 191 192 200 213 224 235 241 250 252 254 261 269 270
168 145 152 158 151 153 162 138 132 141 141 163 122 86 239 264 312 289 261 250 272 303 293 268 231 180 174 159 175 191 183 201 208 217 220 224 229 235 241 240 246 259 268
90 137 152 159 159 159 151 145 158 147 142 153 159 134 275 301 287 273 262 253 250 258 289 301 293 262 215 250 193 205 216 216 216 216 216 217 220 225 229 231 236 244 254
116 141 151 137 137 150 153 158 175 179 176 183 200 168 191 241 296 301 312 289 279 298 277 287 283 268 258 244 232 226 226 214 219 221 216 215 217 222 225 228 233 238 243
145 149 124 128 147 144 146 159 189 169 177 176 182 169 229 253 292 303 298 291 292 274 248 269 267 245 243 227 219 229 247 239 229 219 212 214 217 221 221 224 228 232 233
138 150 143 155 153 142 153 179 198 180 188 187 188 203 230 254 281 288 288 300 300 303 278 262 266 249 244 255 258 268 265 247 259 229 209 218 221 222 220 221 224 227 229
151 157 164 181 182 134 134 166 192 191 190 201 222 225 214 226 258 278 275 288 300 296 277 271 266 276 271 291 308 281 288 277 277 272 231 229 223 220 223 223 224 224 226
156 139 155 206 231 156 84 36 270 221 195 233 249 249 228 212 259 261 278 281 288 284 289 290 286 298 304 324 331 303 296 296 289 286 271 268 234 223 222 226 228 227 225
87 106 111 56 344 327 87 41 317 278 257 247 259 269 244 215 235 243 253 258 249 253 275 282 284 288 295 309 318 306 306 309 298 291 286 278 265 252 238 202 211 213 217
161 201 235 194 181 146 178 195 260 257 253 247 241 254 273 254 225 270 271 267 258 245 229 231 251 268 275 279 294 294 292 287 279 274 274 273 268 273 261 223 203 210 212
164 206 248 242 223 232 205 209 242 242 251 247 241 240 244 247 263 298 292 283 274 256 233 221 229 247 255 246 252 266 273 281 277 269 261 279 285 285 289 247 209 213 217
206 219 235 233 230 214 211 211 224 247 246 244 241 241 231 213 200 266 277 283 286 283 260 245 241 249 253 250 244 260 275 286 293 287 263 263 277 288 280 266 224 221 226
234 230 224 219 229 220 200 216 223 256 262 265 250 219 184 191 188 215 250 269 272 281 298 288 268 254 244 240 229 219 235 263 279 287 286 282 283 310 302 285 265 228 236